EN

Hourly Weather Mzimba

Today, 28 November, Saturday

Time Temperature Precipitation Wind Pressure Humidity
00:00 +21°C° 0 mm 3 mps 650 mmHg 66%
01:00 +21°C° 0 mm 3 mps 650 mmHg 66%
02:00 +21°C° 0 mm 3 mps 650 mmHg 66%
03:00 +20°C° 0 mm 3 mps 650 mmHg 70%
04:00 +19°C° 0 mm 2 mps 650 mmHg 75%
05:00 +19°C° 0 mm 2 mps 650 mmHg 79%
06:00 +21°C° 0 mm 3 mps 651 mmHg 70%
07:00 +24°C° 0 mm 3 mps 652 mmHg 60%
08:00 +27°C° 0 mm 4 mps 653 mmHg 51%
09:00 +28°C° 0 mm 5 mps 653 mmHg 46%
10:00 +29°C° 0 mm 5 mps 653 mmHg 41%
11:00 +32°C° 0 mm 5 mps 653 mmHg 36%
12:00 +32°C° 0 mm 6 mps 652 mmHg 35%
13:00 +32°C° 0 mm 6 mps 651 mmHg 35%
14:00 +32°C° 0 mm 6 mps 651 mmHg 34%
15:00 +30°C° 0 mm 5 mps 650 mmHg 37%
16:00 +29°C° 0 mm 5 mps 649 mmHg 41%
17:00 +27°C° 0 mm 5 mps 649 mmHg 44%
18:00 +26°C° 0 mm 4 mps 649 mmHg 51%
19:00 +23°C° 0 mm 4 mps 649 mmHg 58%
20:00 +21°C° 0 mm 3 mps 649 mmHg 65%
21:00 +21°C° 0 mm 3 mps 649 mmHg 66%
22:00 +21°C° 0 mm 3 mps 649 mmHg 67%
23:00 +21°C° 0 mm 3 mps 649 mmHg 68%

Tomorrow, 29 November, Sunday

Time Temperature Precipitation Wind Pressure Humidity
00:00 +21°C° 0 mm 4 mps 649 mmHg 68%
01:00 +21°C° 0 mm 4 mps 649 mmHg 68%
02:00 +21°C° 0 mm 4 mps 649 mmHg 68%
03:00 +20°C° 0 mm 4 mps 649 mmHg 70%
04:00 +20°C° 0 mm 3 mps 649 mmHg 72%
05:00 +20°C° 0 mm 3 mps 649 mmHg 74%
06:00 +22°C° 0 mm 3 mps 650 mmHg 64%
07:00 +26°C° 0 mm 3 mps 651 mmHg 54%
08:00 +28°C° 0 mm 4 mps 653 mmHg 44%
09:00 +29°C° 0 mm 3 mps 652 mmHg 40%
10:00 +31°C° 0 mm 3 mps 652 mmHg 36%
11:00 +33°C° 0 mm 3 mps 652 mmHg 31%
12:00 +33°C° 0 mm 3 mps 651 mmHg 33%
13:00 +31°C° 0 mm 3 mps 650 mmHg 35%
14:00 +31°C° 0 mm 3 mps 649 mmHg 37%
15:00 +30°C° 0 mm 3 mps 649 mmHg 38%
16:00 +30°C° 0 mm 4 mps 649 mmHg 40%
17:00 +29°C° 0 mm 4 mps 648 mmHg 41%
18:00 +27°C° 0 mm 4 mps 648 mmHg 47%
19:00 +26°C° 0 mm 4 mps 649 mmHg 52%
20:00 +23°C° 0 mm 4 mps 649 mmHg 57%
21:00 +23°C° 0 mm 4 mps 649 mmHg 59%
22:00 +23°C° 0 mm 4 mps 649 mmHg 61%
23:00 +23°C° 0 mm 4 mps 649 mmHg 64%

Day after tomorrow, 30 November, Monday

Time Temperature Precipitation Wind Pressure Humidity
00:00 +22°C° 0 mm 4 mps 649 mmHg 65%
01:00 +22°C° 0 mm 4 mps 648 mmHg 67%
02:00 +22°C° 0 mm 3 mps 648 mmHg 69%
03:00 +21°C° 0 mm 3 mps 648 mmHg 70%
04:00 +21°C° 0 mm 2 mps 648 mmHg 71%
05:00 +20°C° 0 mm 2 mps 649 mmHg 73%
06:00 +23°C° 0 mm 2 mps 649 mmHg 69%
07:00 +24°C° 0 mm 1 mps 650 mmHg 65%
08:00 +25°C° 0 mm 1 mps 651 mmHg 62%
09:00 +27°C° 0.1 mm 1 mps 651 mmHg 53%
10:00 +30°C° 0.1 mm 1 mps 651 mmHg 43%
11:00 +32°C° 0.1 mm 1 mps 651 mmHg 34%
12:00 +31°C° 0.1 mm 2 mps 650 mmHg 38%
13:00 +30°C° 0.1 mm 2 mps 649 mmHg 41%
14:00 +29°C° 0.1 mm 3 mps 649 mmHg 45%
15:00 +29°C° 0 mm 3 mps 648 mmHg 45%
16:00 +29°C° 0 mm 3 mps 648 mmHg 45%
17:00 +28°C° 0 mm 3 mps 648 mmHg 46%
18:00 +27°C° 0 mm 3 mps 648 mmHg 47%
19:00 +26°C° 0 mm 3 mps 649 mmHg 49%
20:00 +24°C° 0 mm 3 mps 649 mmHg 50%
21:00 +24°C° 0 mm 3 mps 649 mmHg 54%
22:00 +24°C° 0 mm 3 mps 649 mmHg 59%
23:00 +22°C° 0 mm 3 mps 649 mmHg 63%

1 December, Tuesday

Time Temperature Precipitation Wind Pressure Humidity
00:00 +21°C° 0 mm 2 mps 648 mmHg 67%
01:00 +21°C° 0 mm 1 mps 648 mmHg 71%
02:00 +20°C° 0 mm 1 mps 648 mmHg 76%
03:00 +20°C° 0 mm 1 mps 648 mmHg 79%
04:00 +19°C° 0 mm 1 mps 648 mmHg 82%
05:00 +19°C° 0 mm 1 mps 648 mmHg 85%
06:00 +22°C° 0 mm 1 mps 649 mmHg 72%
07:00 +26°C° 0 mm 1 mps 650 mmHg 59%
08:00 +29°C° 0 mm 1 mps 652 mmHg 46%
09:00 +30°C° 0.1 mm 1 mps 651 mmHg 43%
10:00 +31°C° 0.1 mm 2 mps 651 mmHg 39%
11:00 +32°C° 0.1 mm 2 mps 651 mmHg 36%
12:00 +32°C° 0 mm 2 mps 650 mmHg 38%
13:00 +31°C° 0 mm 2 mps 649 mmHg 39%
14:00 +31°C° 0 mm 3 mps 648 mmHg 41%
15:00 +31°C° 0 mm 3 mps 648 mmHg 41%
16:00 +30°C° 0 mm 3 mps 648 mmHg 42%
17:00 +29°C° 0 mm 3 mps 648 mmHg 43%
18:00 +28°C° 0 mm 3 mps 648 mmHg 46%
19:00 +26°C° 0 mm 3 mps 648 mmHg 48%
20:00 +25°C° 0 mm 3 mps 648 mmHg 51%
21:00 +23°C° 0 mm 2 mps 648 mmHg 59%
22:00 +21°C° 0 mm 2 mps 648 mmHg 67%
23:00 +21°C° 0 mm 1 mps 648 mmHg 75%

2 December, Wednesday

Time Temperature Precipitation Wind Pressure Humidity
00:00 +21°C° 0.1 mm 1 mps 648 mmHg 78%
01:00 +20°C° 0.1 mm 1 mps 647 mmHg 81%
02:00 +18°C° 0.1 mm 0 mps 647 mmHg 84%
03:00 +18°C° 0 mm 0 mps 647 mmHg 85%
04:00 +19°C° 0 mm 1 mps 648 mmHg 86%
05:00 +19°C° 0 mm 1 mps 648 mmHg 87%
06:00 +22°C° 0 mm 1 mps 649 mmHg 75%
07:00 +25°C° 0 mm 1 mps 650 mmHg 63%
08:00 +28°C° 0 mm 2 mps 651 mmHg 51%
09:00 +29°C° 0.3 mm 2 mps 651 mmHg 47%
10:00 +30°C° 0.3 mm 2 mps 651 mmHg 43%
11:00 +31°C° 0.3 mm 2 mps 651 mmHg 40%
12:00 +31°C° 0.2 mm 3 mps 650 mmHg 40%
13:00 +31°C° 0.2 mm 3 mps 649 mmHg 40%
14:00 +31°C° 0.2 mm 3 mps 648 mmHg 41%
15:00 +30°C° 0 mm 4 mps 648 mmHg 41%
16:00 +30°C° 0 mm 4 mps 648 mmHg 42%
17:00 +29°C° 0 mm 5 mps 647 mmHg 42%
18:00 +27°C° 0 mm 4 mps 647 mmHg 47%
19:00 +26°C° 0 mm 4 mps 648 mmHg 53%
20:00 +24°C° 0 mm 3 mps 648 mmHg 58%
21:00 +24°C° 0 mm 3 mps 648 mmHg 61%
22:00 +22°C° 0 mm 3 mps 648 mmHg 63%
23:00 +22°C° 0 mm 3 mps 649 mmHg 66%

3 December, Thursday

Time Temperature Precipitation Wind Pressure Humidity
00:00 +21°C° 0 mm 3 mps 648 mmHg 67%
01:00 +21°C° 0 mm 2 mps 648 mmHg 69%
02:00 +20°C° 0 mm 2 mps 648 mmHg 71%
03:00 +20°C° 0 mm 2 mps 648 mmHg 74%
04:00 +20°C° 0 mm 1 mps 648 mmHg 77%
05:00 +19°C° 0 mm 1 mps 649 mmHg 80%
06:00 +21°C° 0 mm 2 mps 650 mmHg 70%
07:00 +24°C° 0 mm 2 mps 651 mmHg 60%
08:00 +27°C° 0 mm 3 mps 652 mmHg 50%
09:00 +28°C° 0 mm 3 mps 652 mmHg 45%
10:00 +30°C° 0 mm 3 mps 652 mmHg 41%
11:00 +32°C° 0 mm 4 mps 652 mmHg 36%
12:00 +32°C° 0 mm 4 mps 651 mmHg 37%
13:00 +32°C° 0 mm 4 mps 650 mmHg 38%
14:00 +32°C° 0 mm 4 mps 649 mmHg 38%
15:00 +30°C° 0 mm 4 mps 649 mmHg 40%
16:00 +29°C° 0 mm 4 mps 649 mmHg 41%
17:00 +29°C° 0 mm 4 mps 649 mmHg 42%
18:00 +27°C° 0 mm 4 mps 649 mmHg 48%
19:00 +25°C° 0 mm 3 mps 649 mmHg 54%
20:00 +22°C° 0 mm 3 mps 649 mmHg 60%
21:00 +22°C° 0 mm 3 mps 649 mmHg 62%
22:00 +22°C° 0 mm 3 mps 649 mmHg 64%
23:00 +22°C° 0 mm 3 mps 650 mmHg 66%
Show more

We Need Your Consent

Meteoprog and our Service Providers may store and access personal data such as cookies, device identifiers or other similar technologies on your device and process such data to personalise content and ads, as well as provide social media features and to analyse the traffic.

  • Store and/or access information on your device

    Cookies, device identifiers or other information can be stored or accessed on your device for the purposes indicated above.

  • Personalised ads and content, ad and content measurement, audience insights, and products development

    Ads and content can be personalised based on a profile. More data can be added to better personalise ads and content. Ad and content performance can be measured. Insights about the audience who saw the ads and content can be derived. Such data can be used to develop or improve user’s experience, systems and software.

By clicking ‘I Agree’ you will allow the use of indicated cookies, device identifiers, web beacons or other similar technologies. Your settings can be changed in the browser on your device.

For certain purposes, legitimate interests may be relied on, rather than consent. You can read more about this in our Privacy and Cookie Policy.